TimeCST,TemperatureF,Dew PointF,Humidity,Sea Level PressureIn,VisibilityMPH,Wind Direction,Wind SpeedMPH,Gust SpeedMPH,PrecipitationIn,Events,Conditions,WindDirDegrees,DateUTC
12:53 AM,33.1,27.0,78,30.26,10.0,Calm,Calm,-,N/A,,Clear,0,2013-01-17 06:53:00
2:53 AM,28.0,25.0,88,30.32,10.0,North,5.8,-,N/A,,Clear,360,2013-01-17 08:53:00
3:53 AM,28.9,26.1,89,30.35,10.0,NNW,8.1,-,N/A,,Clear,340,2013-01-17 09:53:00
5:53 AM,28.0,24.1,85,30.40,10.0,NNW,8.1,-,N/A,,Clear,330,2013-01-17 11:53:00
6:53 AM,25.0,21.9,88,30.43,10.0,North,5.8,-,N/A,,Clear,350,2013-01-17 12:53:00
7:53 AM,24.1,21.0,88,30.45,10.0,North,6.9,-,N/A,,Clear,10,2013-01-17 13:53:00
8:53 AM,28.9,23.0,78,30.48,10.0,North,12.7,-,N/A,,Clear,360,2013-01-17 14:53:00
9:53 AM,32.0,24.1,73,30.51,10.0,North,6.9,-,N/A,,Clear,350,2013-01-17 15:53:00
10:53 AM,35.1,23.0,61,30.51,10.0,NNE,3.5,-,N/A,,Clear,30,2013-01-17 16:53:00
11:53 AM,37.9,21.0,51,30.49,10.0,North,4.6,-,N/A,,Clear,360,2013-01-17 17:53:00
12:53 PM,39.9,23.0,51,30.47,10.0,Calm,Calm,-,N/A,,Clear,0,2013-01-17 18:53:00
1:53 PM,43.0,25.0,49,30.45,10.0,WSW,4.6,-,N/A,,Clear,250,2013-01-17 19:53:00
2:53 PM,45.0,26.1,48,30.44,10.0,Calm,Calm,-,N/A,,Clear,0,2013-01-17 20:53:00
3:53 PM,45.0,27.0,49,30.44,10.0,Calm,Calm,-,N/A,,Clear,0,2013-01-17 21:53:00
4:53 PM,44.1,28.9,55,30.44,10.0,Calm,Calm,-,N/A,,Clear,0,2013-01-17 22:53:00
5:53 PM,37.0,27.0,67,30.44,10.0,ESE,3.5,-,N/A,,Clear,120,2013-01-17 23:53:00
6:53 PM,30.9,26.1,82,30.45,10.0,Calm,Calm,-,N/A,,Clear,0,2013-01-18 00:53:00
7:53 PM,28.0,24.1,85,30.46,10.0,Calm,Calm,-,N/A,,Clear,0,2013-01-18 01:53:00
8:53 PM,30.9,25.0,79,30.44,10.0,Calm,Calm,-,N/A,,Clear,0,2013-01-18 02:53:00
9:53 PM,32.0,26.1,79,30.42,10.0,SSE,4.6,-,N/A,,Clear,150,2013-01-18 03:53:00
10:53 PM,27.0,23.0,85,30.41,9.0,South,3.5,-,N/A,,Clear,170,2013-01-18 04:53:00
11:53 PM,28.0,25.0,88,30.40,10.0,South,3.5,-,N/A,,Clear,170,2013-01-18 05:53:00